Greenville, ME

2:25 PM EST on February 23, 2017 (GMT -0500)
Greenville

Weather History for KGNR - February, 2014

Change the Weather History Date:

Saturday, February 8, 2014

  Actual Average (KMLT) Record (KMLT)
Temperature  
Mean Temperature 11 °F -  
Max Temperature 17 °F 23 °F 48 °F (1951)
Min Temperature 5 °F 0 °F -31 °F (1993)
Degree Days  
Heating Degree Days 54    
Moisture  
Dew Point 0 °F    
Average Humidity 64    
Maximum Humidity 77    
Minimum Humidity 50    
Precipitation  
Precipitation 0.00 in - - ()
Sea Level Pressure  
Sea Level Pressure 30.09 in    
Wind  
Wind Speed 3 mph (WNW)    
Max Wind Speed 8 mph    
Max Gust Speed 20 mph    
Averages and records for this station are not official NWS values.
T = Trace of Precipitation, MM = Missing Value Source: NWS Daily Summary

Daily Weather History Graph

Daily Weather History Graph

Search for Another Location

Airport or City:

Trip Planner

Search our weather history database for the weather conditions in past years. The results will help you decide how hot, cold, wet, or windy it might be!

Date:

Astronomy

Feb. 08, 2014 Rise Set
Actual Time 6:50 AM EST 4:55 PM EST
Civil Twilight 6:19 AM EST 5:26 PM EST
Nautical Twilight 5:44 AM EST 6:01 PM EST
Astronomical Twilight 5:09 AM EST 6:35 PM EST
Moon 11:42 AM EST (2/8) 2:03 AM EST (2/8)
Length of Visible Light 11h 06m
Length of Day
10h 05m
Waxing Gibbous, 68% of the Moon is Illuminated
Feb 8
Waxing Gibbous
Feb 14
Full
Feb 22
Last Quarter
Mar 1
New
Mar 8
First Quarter

Hourly Weather History & Observations

Time (EST) Temp. Windchill Dew Point Humidity Pressure Visibility Wind Dir Wind Speed Gust Speed Precip Events Conditions
12:56 AM 8.1 °F -2.0 °F 1.0 °F 73% 30.03 in - Variable 5.8 mph - N/A   Unknown
1:56 AM 7.0 °F - 1.0 °F 77% 30.05 in - Calm Calm - N/A   Unknown
2:56 AM 6.1 °F - -0.9 °F 73% 30.04 in - Calm Calm - N/A   Unknown
3:56 AM 6.1 °F - -2.0 °F 69% 30.04 in - Calm Calm - N/A   Unknown
4:56 AM 5.0 °F - -2.9 °F 70% 30.05 in - Calm Calm - N/A   Unknown
5:56 AM 6.1 °F -0.9 °F -2.0 °F 69% 30.06 in - Variable 3.5 mph - N/A   Unknown
6:56 AM 7.0 °F -3.3 °F -2.0 °F 67% 30.09 in - Variable 5.8 mph - N/A   Unknown
7:56 AM 8.1 °F - -0.0 °F 70% 30.10 in - Calm Calm - N/A   Unknown
8:56 AM 12.0 °F - 1.0 °F 61% 30.10 in - Calm Calm - N/A   Unknown
9:56 AM 14.0 °F 3.9 °F 1.0 °F 56% 30.10 in - West 6.9 mph - N/A   Unknown
10:56 AM 16.0 °F 5.3 °F 1.9 °F 54% 30.10 in - West 8.1 mph - N/A   Unknown
11:56 AM 16.0 °F 6.3 °F 1.0 °F 52% 30.09 in - Variable 6.9 mph - N/A   Unknown
12:56 PM 17.1 °F 10.0 °F 1.0 °F 50% 30.07 in - Variable 4.6 mph - N/A   Unknown
1:56 PM 14.0 °F 5.1 °F 1.0 °F 56% 30.07 in - Variable 5.8 mph 19.6 mph N/A   Unknown
2:56 PM 14.0 °F 8.2 °F 1.0 °F 56% 30.07 in - Variable 3.5 mph - N/A   Unknown
3:56 PM 14.0 °F 6.5 °F 1.0 °F 56% 30.09 in - Variable 4.6 mph - N/A   Unknown
4:56 PM 12.9 °F - 1.0 °F 59% 30.12 in - Calm Calm - N/A   Unknown
5:56 PM 12.9 °F 6.9 °F 1.9 °F 62% 30.14 in - Variable 3.5 mph - N/A   Unknown
6:56 PM 12.0 °F - 1.9 °F 64% 30.14 in - Calm Calm - N/A   Unknown
7:56 PM 10.9 °F 1.4 °F 1.0 °F 64% 30.12 in - Variable 5.8 mph - N/A   Unknown
8:56 PM 9.0 °F 0.6 °F 1.0 °F 70% 30.11 in - Variable 4.6 mph - N/A   Unknown
9:56 PM 10.0 °F 3.6 °F 1.9 °F 70% 30.11 in - Variable 3.5 mph - N/A   Unknown
10:56 PM 9.0 °F 0.6 °F 1.0 °F 70% 30.09 in - NW 4.6 mph - N/A   Unknown
11:56 PM 10.0 °F -0.9 °F 1.0 °F 67% 30.09 in - NW 6.9 mph - N/A   Unknown